When you browse on this site, cookies collect data to enhance your experience and personalize the content and advertising you see.
Visit our Privacy Policy to learn more. By continuing to use the site, you agree to this use of cookies and data.
  • en Suisse
  • Liste des pays
  • À 7 jours
  • Température de l'eau
  • Carte satellitaire
  • Carte météo
  • Widgets météo
  • user-avatar
    Se connecter

    Météo par heure à Pleskachivka

    Ce jour, 26 Avril, Vendredi

    Heure Température Précipitation Vent Pression Humidité
    00:00 +13°C° 0 mm 2 m/s 754 mmHg 55%
    01:00 +13°C° 0 mm 2 m/s 754 mmHg 54%
    02:00 +12°C° 0 mm 2 m/s 754 mmHg 53%
    03:00 +10°C° 0 mm 2 m/s 754 mmHg 55%
    04:00 +10°C° 0 mm 2 m/s 754 mmHg 56%
    05:00 +11°C° 0 mm 1 m/s 754 mmHg 57%
    06:00 +12°C° 0 mm 1 m/s 754 mmHg 54%
    07:00 +14°C° 0 mm 2 m/s 754 mmHg 51%
    08:00 +15°C° 0 mm 2 m/s 754 mmHg 48%
    09:00 +17°C° 0 mm 2 m/s 754 mmHg 42%
    10:00 +18°C° 0 mm 3 m/s 753 mmHg 36%
    11:00 +20°C° 0 mm 3 m/s 753 mmHg 31%
    12:00 +20°C° 0 mm 3 m/s 753 mmHg 30%
    13:00 +21°C° 0 mm 4 m/s 753 mmHg 30%
    14:00 +22°C° 0 mm 4 m/s 752 mmHg 29%
    15:00 +21°C° 0 mm 4 m/s 752 mmHg 32%
    16:00 +21°C° 0 mm 4 m/s 752 mmHg 34%
    17:00 +21°C° 0 mm 3 m/s 751 mmHg 36%
    18:00 +19°C° 0 mm 3 m/s 751 mmHg 41%
    19:00 +17°C° 0 mm 3 m/s 751 mmHg 45%
    20:00 +14°C° 0 mm 3 m/s 751 mmHg 49%
    21:00 +14°C° 0 mm 3 m/s 751 mmHg 51%
    22:00 +13°C° 0 mm 3 m/s 751 mmHg 53%
    23:00 +12°C° 0 mm 3 m/s 751 mmHg 55%

    Demain, 27 Avril, Samedi

    Heure Température Précipitation Vent Pression Humidité
    00:00 +12°C° 0 mm 3 m/s 751 mmHg 55%
    01:00 +11°C° 0 mm 3 m/s 751 mmHg 56%
    02:00 +10°C° 0 mm 3 m/s 751 mmHg 56%
    03:00 +10°C° 0 mm 3 m/s 750 mmHg 57%
    04:00 +9°C° 0 mm 3 m/s 750 mmHg 57%
    05:00 +9°C° 0 mm 3 m/s 750 mmHg 58%
    06:00 +11°C° 0 mm 3 m/s 750 mmHg 54%
    07:00 +13°C° 0 mm 4 m/s 750 mmHg 51%
    08:00 +14°C° 0 mm 4 m/s 750 mmHg 47%
    09:00 +17°C° 0 mm 4 m/s 749 mmHg 44%
    10:00 +19°C° 0 mm 5 m/s 749 mmHg 40%
    11:00 +20°C° 0 mm 5 m/s 749 mmHg 36%
    12:00 +21°C° 0 mm 5 m/s 748 mmHg 37%
    13:00 +21°C° 0 mm 5 m/s 748 mmHg 37%
    14:00 +22°C° 0 mm 5 m/s 748 mmHg 37%
    15:00 +21°C° 0 mm 4 m/s 747 mmHg 41%
    16:00 +21°C° 0 mm 4 m/s 747 mmHg 45%
    17:00 +20°C° 0 mm 3 m/s 746 mmHg 49%
    18:00 +19°C° 0.1 mm 3 m/s 746 mmHg 52%
    19:00 +18°C° 0.1 mm 4 m/s 746 mmHg 55%
    20:00 +17°C° 0.1 mm 4 m/s 746 mmHg 58%
    21:00 +15°C° 0 mm 4 m/s 746 mmHg 57%
    22:00 +15°C° 0 mm 5 m/s 746 mmHg 55%
    23:00 +14°C° 0 mm 5 m/s 746 mmHg 54%

    Après-demain, 28 Avril, Dimanche

    Heure Température Précipitation Vent Pression Humidité
    00:00 +14°C° 0 mm 5 m/s 746 mmHg 54%
    01:00 +13°C° 0 mm 4 m/s 746 mmHg 55%
    02:00 +12°C° 0 mm 4 m/s 745 mmHg 55%
    03:00 +12°C° 0 mm 4 m/s 745 mmHg 56%
    04:00 +11°C° 0 mm 4 m/s 745 mmHg 56%
    05:00 +11°C° 0 mm 4 m/s 745 mmHg 56%
    06:00 +12°C° 0 mm 4 m/s 745 mmHg 55%
    07:00 +13°C° 0 mm 4 m/s 745 mmHg 53%
    08:00 +14°C° 0 mm 4 m/s 745 mmHg 51%
    09:00 +17°C° 0 mm 4 m/s 745 mmHg 46%
    10:00 +19°C° 0 mm 3 m/s 745 mmHg 41%
    11:00 +21°C° 0 mm 3 m/s 745 mmHg 36%
    12:00 +21°C° 0 mm 3 m/s 745 mmHg 35%
    13:00 +22°C° 0 mm 3 m/s 745 mmHg 34%
    14:00 +23°C° 0 mm 2 m/s 745 mmHg 33%
    15:00 +23°C° 0 mm 2 m/s 744 mmHg 34%
    16:00 +23°C° 0 mm 2 m/s 744 mmHg 36%
    17:00 +23°C° 0 mm 2 m/s 744 mmHg 37%
    18:00 +20°C° 0 mm 2 m/s 744 mmHg 41%
    19:00 +18°C° 0 mm 2 m/s 744 mmHg 45%
    20:00 +16°C° 0 mm 2 m/s 745 mmHg 50%
    21:00 +16°C° 0 mm 2 m/s 745 mmHg 53%
    22:00 +15°C° 0 mm 2 m/s 745 mmHg 55%
    23:00 +14°C° 0 mm 2 m/s 745 mmHg 58%

    29 Avril, Lundi

    Heure Température Précipitation Vent Pression Humidité
    00:00 +13°C° 0 mm 1 m/s 745 mmHg 60%
    01:00 +13°C° 0 mm 1 m/s 745 mmHg 61%
    02:00 +12°C° 0 mm 1 m/s 745 mmHg 62%
    03:00 +12°C° 0 mm 1 m/s 745 mmHg 63%
    04:00 +11°C° 0 mm 1 m/s 745 mmHg 64%
    05:00 +11°C° 0 mm 1 m/s 745 mmHg 65%
    06:00 +13°C° 0 mm 2 m/s 745 mmHg 61%
    07:00 +14°C° 0 mm 2 m/s 746 mmHg 56%
    08:00 +15°C° 0 mm 2 m/s 746 mmHg 52%
    09:00 +17°C° 0 mm 3 m/s 746 mmHg 48%
    10:00 +18°C° 0 mm 3 m/s 746 mmHg 43%
    11:00 +19°C° 0 mm 4 m/s 746 mmHg 39%
    12:00 +20°C° 0 mm 3 m/s 746 mmHg 37%
    13:00 +21°C° 0 mm 3 m/s 746 mmHg 35%
    14:00 +21°C° 0 mm 3 m/s 746 mmHg 33%
    15:00 +20°C° 0 mm 4 m/s 746 mmHg 42%
    16:00 +19°C° 0 mm 5 m/s 745 mmHg 52%
    17:00 +17°C° 0 mm 6 m/s 745 mmHg 61%
    18:00 +16°C° 0 mm 7 m/s 745 mmHg 68%
    19:00 +14°C° 0 mm 7 m/s 745 mmHg 75%
    20:00 +12°C° 0 mm 7 m/s 745 mmHg 81%
    21:00 +12°C° 0.3 mm 7 m/s 745 mmHg 84%
    22:00 +11°C° 0.3 mm 6 m/s 745 mmHg 86%
    23:00 +12°C° 0.3 mm 5 m/s 745 mmHg 88%

    30 Avril, Mardi

    Heure Température Précipitation Vent Pression Humidité
    00:00 +12°C° 0.4 mm 5 m/s 745 mmHg 89%
    01:00 +10°C° 0.4 mm 5 m/s 745 mmHg 91%
    02:00 +11°C° 0.4 mm 4 m/s 745 mmHg 92%
    03:00 +11°C° 0.3 mm 4 m/s 744 mmHg 93%
    04:00 +11°C° 0.3 mm 4 m/s 744 mmHg 94%
    05:00 +11°C° 0.3 mm 4 m/s 744 mmHg 95%
    06:00 +11°C° 0.5 mm 4 m/s 744 mmHg 93%
    07:00 +12°C° 0.5 mm 4 m/s 744 mmHg 91%
    08:00 +12°C° 0.5 mm 4 m/s 744 mmHg 90%
    09:00 +14°C° 0.5 mm 3 m/s 743 mmHg 82%
    10:00 +16°C° 0.5 mm 3 m/s 743 mmHg 75%
    11:00 +17°C° 0.5 mm 2 m/s 743 mmHg 67%
    12:00 +18°C° 0.9 mm 3 m/s 743 mmHg 67%
    13:00 +18°C° 0.9 mm 3 m/s 742 mmHg 66%
    14:00 +18°C° 0.9 mm 3 m/s 742 mmHg 66%
    15:00 +18°C° 1.2 mm 3 m/s 742 mmHg 68%
    16:00 +17°C° 1.2 mm 4 m/s 741 mmHg 71%
    17:00 +17°C° 1.2 mm 4 m/s 741 mmHg 73%
    18:00 +16°C° 0.2 mm 3 m/s 741 mmHg 78%
    19:00 +14°C° 0.2 mm 3 m/s 741 mmHg 84%
    20:00 +12°C° 0.2 mm 3 m/s 741 mmHg 89%
    21:00 +12°C° 0.5 mm 3 m/s 741 mmHg 91%
    22:00 +11°C° 0.5 mm 3 m/s 741 mmHg 93%
    23:00 +10°C° 0.5 mm 4 m/s 741 mmHg 95%

    1 Mai, Mercredi

    Heure Température Précipitation Vent Pression Humidité
    00:00 +10°C° 0.4 mm 3 m/s 740 mmHg 94%
    01:00 +10°C° 0.4 mm 3 m/s 740 mmHg 94%
    02:00 +9°C° 0.4 mm 3 m/s 740 mmHg 94%
    03:00 +9°C° 0 mm 3 m/s 740 mmHg 93%
    04:00 +9°C° 0 mm 3 m/s 740 mmHg 93%
    05:00 +9°C° 0 mm 3 m/s 740 mmHg 93%
    06:00 +9°C° 0 mm 3 m/s 740 mmHg 92%
    07:00 +9°C° 0 mm 3 m/s 740 mmHg 92%
    08:00 +9°C° 0 mm 3 m/s 740 mmHg 91%
    09:00 +8°C° 0 mm 4 m/s 740 mmHg 90%
    10:00 +8°C° 0 mm 4 m/s 740 mmHg 88%
    11:00 +8°C° 0 mm 4 m/s 740 mmHg 87%
    12:00 +10°C° 0 mm 4 m/s 740 mmHg 84%
    13:00 +10°C° 0 mm 4 m/s 740 mmHg 82%
    14:00 +11°C° 0 mm 4 m/s 740 mmHg 79%
    15:00 +10°C° 0 mm 4 m/s 740 mmHg 79%
    16:00 +9°C° 0 mm 5 m/s 740 mmHg 80%
    17:00 +9°C° 0 mm 5 m/s 740 mmHg 80%
    18:00 +9°C° 0 mm 5 m/s 740 mmHg 80%
    19:00 +8°C° 0 mm 5 m/s 740 mmHg 81%
    20:00 +8°C° 0 mm 5 m/s 740 mmHg 81%
    21:00 +7°C° 0 mm 4 m/s 741 mmHg 84%
    22:00 +6°C° 0 mm 4 m/s 741 mmHg 87%
    23:00 +5°C° 0 mm 4 m/s 741 mmHg 91%
    Voir plus